FW5955 Weather Reports


Display with metric or nautical units.
time (UTC)temp
F
wind
direction
speed
MPH
gust
MPH
rain 1hr
in
rain 24hr
in
rain mn
in
humidity
%
barometer
mb
20260906203043 57 275 1.0 4.0 0.06 0.16 0.10 92 1004.3
20260906201541 57 240 0.0 2.0 0.05 0.15 0.09 92 1004.1
20260906200048 57 243 0.0 4.0 0.02 0.12 0.06 92 1004.1
20260906194601 57 258 0.0 4.0 0.02 0.13 0.06 92 1004.0
20260906193041 57 290 1.0 6.0 0.02 0.12 0.05 92 1003.9
20260906191539 57 58 0.0 7.0 0.02 0.12 0.05 91 1003.8
20260906190039 58 251 1.0 5.0 0.01 0.11 0.04 91 1003.8
20260906184538 58 76 1.0 5.0 0.00 0.10 0.03 90 1003.7
20260906183041 58 337 0.0 5.0 0.00 0.10 0.03 90 1003.7
20260906181542 58 188 1.0 6.0 0.00 0.10 0.03 90 1003.7
20260906180042 59 44 1.0 3.0 0.00 0.10 0.03 90 1003.7
20260906174540 59 340 0.0 6.0 0.00 0.10 0.03 90 1003.7
20260906173035 59 96 1.0 5.0 0.00 0.10 0.03 89 1003.7
20260906171537 60 254 0.0 6.0 0.00 0.10 0.03 87 1003.7
20260906170136 61 269 2.0 11.0 0.00 0.10 0.03 84 1003.7
20260906164542 62 213 2.0 8.0 0.00 0.10 0.03 83 1003.6
20260906163045 63 134 1.0 9.0 0.00 0.10 0.03 83 1003.6
20260906161533 63 70 2.0 9.0 0.00 0.10 0.03 81 1003.7
20260906160046 64 219 3.0 10.0 0.00 0.10 0.03 80 1003.7
20260906154534 64 10 3.0 13.0 0.00 0.10 0.03 80 1003.7
20260906153037 65 221 1.0 11.0 0.00 0.10 0.03 79 1003.6
20260906151530 65 32 2.0 7.0 0.00 0.10 0.03 79 1003.7
20260906150044 65 28 1.0 11.0 0.00 0.10 0.03 80 1003.7
20260906144533 64 80 2.0 12.0 0.00 0.10 0.03 82 1003.8
20260906143025 63 259 2.0 11.0 0.00 0.10 0.03 83 1003.9
20260906141531 61 9 1.0 12.0 0.00 0.10 0.03 85 1004.0
20260906140015 60 135 1.0 13.0 0.00 0.10 0.03 87 1003.9
20260906134512 60 27 2.0 9.0 0.00 0.10 0.03 87 1004.1
20260906133012 60 342 2.0 8.0 0.00 0.10 0.03 86 1004.0
20260906131522 60 103 2.0 9.0 0.00 0.10 0.03 87 1003.8
20260906130007 59 228 3.0 10.0 0.00 0.10 0.03 87 1003.8
20260906124505 59 71 1.0 10.0 0.00 0.11 0.03 88 1003.7
20260906123002 58 108 2.0 5.0 0.00 0.11 0.03 89 1003.8
20260906121600 58 285 1.0 10.0 0.00 0.11 0.03 89 1003.8
20260906120105 57 253 1.0 5.0 0.00 0.11 0.03 90 1003.8
20260906114557 57 54 2.0 8.0 0.00 0.13 0.03 91 1003.8
20260906113104 56 9 2.0 10.0 0.00 0.13 0.03 91 1003.7
20260906111556 56 263 1.0 9.0 0.00 0.13 0.03 92 1003.7
20260906110054 56 20 1.0 10.0 0.00 0.13 0.03 92 1003.6
20260906104613 56 338 1.0 11.0 0.00 0.13 0.03 92 1003.6
20260906103052 56 122 2.0 8.0 0.00 0.13 0.03 92 1003.4
20260906101551 56 236 0.0 6.0 0.00 0.13 0.03 92 1003.3
20260906100049 55 13 2.0 12.0 0.00 0.13 0.03 92 1003.2
20260906094612 55 113 1.0 8.0 0.00 0.13 0.03 93 1003.0
20260906093047 55 61 1.0 12.0 0.00 0.13 0.03 93 1002.9
20260906091547 55 257 1.0 9.0 0.00 0.13 0.03 93 1002.7
20260906090045 55 77 2.0 10.0 0.00 0.13 0.03 93 1002.7
20260906084543 55 60 2.0 9.0 0.01 0.14 0.03 93 1002.8
20260906083042 55 115 2.0 8.0 0.02 0.14 0.03 93 1002.7
20260906081548 55 49 2.0 8.0 0.02 0.14 0.03 93 1002.6
20260906080046 55 342 2.0 11.0 0.02 0.14 0.03 93 1002.6
20260906074538 55 251 2.0 11.0 0.02 0.14 0.02 93 1002.6
20260906073036 56 165 2.0 11.0 0.01 0.13 0.01 93 1002.7
20260906071535 56 127 2.0 9.0 0.01 0.13 0.01 93 1002.7
20260906070033 56 72 2.0 11.0 0.01 0.13 0.01 92 1002.5
20260906064531 56 290 2.0 12.0 0.00 0.12 0.00 92 1002.5
20260906063033 56 257 2.0 10.0 0.00 0.12 0.00 92 1002.5
20260906061536 57 73 3.0 13.0 0.00 0.12 0.00 91 1002.5
20260906060027 57 68 3.0 11.0 0.00 0.12 0.00 91 1002.5
20260906054523 57 172 3.0 13.0 0.00 0.12 0.00 91 1002.3
20260906053023 57 209 2.0 11.0 0.00 0.12 0.00 91 1002.4
20260906051521 57 323 3.0 15.0 0.00 0.12 0.00 91 1002.3
20260906050021 57 180 2.0 12.0 0.00 0.12 0.00 91 1002.3
20260906044519 57 32 3.0 15.0 0.00 0.12 0.00 91 1002.5
20260906043015 57 142 3.0 12.0 0.00 0.12 0.00 91 1002.4
20260906041514 58 269 3.0 11.0 0.00 0.12 0.00 91 1002.5
20260906040013 58 144 4.0 10.0 0.00 0.12 0.00 91 1002.6
20260906034511 57 45 3.0 10.0 0.00 0.12 0.00 91 1002.5
20260906033009 57 62 2.0 14.0 0.00 0.12 0.00 91 1002.7
20260906031509 57 80 2.0 8.0 0.00 0.12 0.00 91 1002.9
20260906030005 57 325 3.0 14.0 0.00 0.12 0.00 91 1002.7
20260906024504 57 289 3.0 16.0 0.00 0.12 0.12 91 1002.7
20260906023004 57 274 3.0 13.0 0.00 0.12 0.12 91 1002.6
20260906021502 57 191 4.0 10.0 0.00 0.12 0.12 91 1002.7
20260906020002 57 22 2.0 11.0 0.00 0.12 0.12 91 1002.9
20260906014601 57 146 3.0 11.0 0.00 0.12 0.12 92 1003.1
20260906013059 57 41 4.0 13.0 0.00 0.12 0.12 92 1003.0
20260906011558 57 324 2.0 11.0 0.00 0.12 0.12 92 1002.9
20260906010106 57 222 3.0 13.0 0.00 0.12 0.12 92 1003.1
20260906004558 57 91 3.0 11.0 0.00 0.12 0.12 92 1003.2
20260906003059 57 336 2.0 9.0 0.00 0.12 0.12 93 1003.1
20260906001606 57 85 4.0 13.0 0.00 0.12 0.12 93 1003.1
20260906000054 57 260 3.0 11.0 0.00 0.12 0.12 93 1003.1
20260905234551 57 47 3.0 10.0 0.01 0.12 0.12 93 1002.9
20260905233054 57 209 2.0 16.0 0.01 0.12 0.12 93 1002.7
20260905231548 57 114 3.0 13.0 0.02 0.12 0.12 93 1002.6
20260905230052 57 4 2.0 14.0 0.04 0.12 0.12 93 1002.5
20260905224554 57 74 2.0 9.0 0.03 0.11 0.11 93 1002.2
20260905223046 57 105 2.0 12.0 0.03 0.11 0.11 93 1002.1
20260905221547 57 79 2.0 9.0 0.02 0.09 0.09 93 1002.0
20260905220039 58 134 2.0 12.0 0.02 0.08 0.08 93 1002.0
20260905214537 58 92 3.0 11.0 0.02 0.08 0.08 92 1001.9
20260905213036 58 249 3.0 13.0 0.02 0.08 0.08 92 1001.8
20260905211543 58 173 3.0 11.0 0.01 0.07 0.07 92 1001.7
20260905210038 58 125 4.0 15.0 0.00 0.06 0.06 91 1001.6
20260905204530 59 143 4.0 15.0 0.00 0.06 0.06 91 1001.4